EW8300 Weather Reports


Display with metric or nautical units.
time (UTC)temp
F
wind
direction
speed
MPH
gust
MPH
rain 1hr
in
rain 24hr
in
rain mn
in
humidity
%
barometer
mb
20260503173108 60 112 0.0 7.0 0.00 0.00 0.00 36 1017.2
20260503171607 60 223 0.0 3.0 0.00 0.00 0.00 36 1017.5
20260503170111 60 75 0.0 8.0 0.00 0.00 0.00 35 1017.7
20260503110104 32 207 0.0 0.0 0.00 0.00 0.00 92 1018.7
20260503090112 31 207 0.0 0.0 0.00 0.00 0.00 90 1018.4
20260503081543 33 207 0.0 0.0 0.00 0.00 0.00 86 1018.2
20260503071610 34 207 0.0 0.0 0.00 0.00 0.00 86 1018.1
20260503060103 34 207 0.0 0.0 0.00 0.00 0.00 88 1018.5
20260503054507 34 207 0.0 0.0 0.00 0.00 0.00 88 1018.5
20260503053016 35 207 0.0 0.0 0.00 0.00 0.00 88 1018.5
20260503051559 36 207 0.0 0.0 0.00 0.00 0.00 86 1018.5
20260503050021 36 207 0.0 0.0 0.00 0.00 0.00 86 1018.5
20260503044604 37 207 0.0 0.0 0.00 0.00 0.00 85 1018.3
20260503043027 37 207 0.0 0.0 0.00 0.00 0.00 85 1018.4
20260503041604 37 207 0.0 0.0 0.00 0.00 0.00 84 1018.4
20260503040008 38 207 0.0 0.0 0.00 0.00 0.00 82 1018.5
20260503034519 39 207 0.0 0.0 0.00 0.00 0.00 81 1018.5
20260503033004 39 207 0.0 0.0 0.00 0.00 0.00 81 1018.5
20260503031607 40 207 0.0 0.0 0.00 0.00 0.00 79 1018.4
20260503030104 41 207 0.0 0.0 0.00 0.00 0.00 77 1018.4
20260503024516 41 207 0.0 0.0 0.00 0.00 0.00 76 1018.2
20260503023015 41 207 0.0 0.0 0.00 0.00 0.00 76 1018.2
20260503021554 42 207 0.0 0.0 0.00 0.00 0.00 74 1018.0
20260503020107 43 207 0.0 0.0 0.00 0.00 0.00 75 1017.9
20260503014516 44 207 0.0 0.0 0.00 0.00 0.00 71 1017.6
20260503013013 44 207 0.0 0.0 0.00 0.00 0.00 68 1017.4
20260503011549 45 207 0.0 0.0 0.00 0.00 0.00 68 1017.2
20260503010035 45 207 0.0 0.0 0.00 0.00 0.00 64 1017.0
20260503004527 46 207 0.0 0.0 0.00 0.00 0.00 64 1016.8
20260503003027 48 207 0.0 0.0 0.00 0.00 0.00 60 1016.8
20260503001502 50 209 0.0 0.0 0.00 0.00 0.00 55 1016.5
20260503000119 52 213 0.0 0.0 0.00 0.00 0.00 52 1016.4
20260502234606 53 219 0.0 5.0 0.00 0.00 0.00 44 1016.3
20260502233055 54 175 0.0 9.0 0.00 0.00 0.00 41 1016.2
20260502231610 54 201 0.0 9.0 0.00 0.00 0.00 42 1016.3
20260502230013 55 204 0.0 3.0 0.00 0.00 0.00 40 1016.3
20260502224605 55 208 0.0 6.0 0.00 0.00 0.00 39 1016.1
20260502223027 55 231 0.0 1.0 0.00 0.00 0.00 39 1016.1
20260502221541 55 179 0.0 1.0 0.00 0.00 0.00 42 1016.0
20260502220110 54 228 0.0 3.0 0.00 0.00 0.00 40 1016.0
20260502214528 55 149 0.0 5.0 0.00 0.00 0.00 40 1015.9
20260502213023 55 219 0.0 4.0 0.00 0.00 0.00 40 1015.9
20260502211559 57 256 0.0 8.0 0.00 0.00 0.00 37 1015.8
20260502210020 57 194 1.0 12.0 0.00 0.00 0.00 37 1015.7
20260502204610 56 180 1.0 11.0 0.00 0.00 0.00 36 1015.8
20260502203056 55 216 0.0 10.0 0.00 0.00 0.00 41 1016.0
20260502201509 56 189 0.0 15.0 0.00 0.00 0.00 37 1016.0
20260502200029 55 207 0.0 8.0 0.00 0.00 0.00 38 1016.1
20260502194605 54 110 0.0 7.0 0.00 0.00 0.00 39 1016.3
20260502193028 54 220 0.0 7.0 0.00 0.00 0.00 42 1016.3
20260502191606 54 175 0.0 15.0 0.00 0.00 0.00 41 1016.4
20260502190104 55 208 0.0 9.0 0.00 0.00 0.00 40 1016.4
20260502184604 54 216 1.0 16.0 0.00 0.00 0.00 44 1016.6
20260502183022 54 264 1.0 16.0 0.00 0.00 0.00 44 1016.8
20260502181512 54 214 0.0 7.0 0.00 0.00 0.00 45 1016.8